TimePDT,TemperatureF,Dew PointF,Humidity,Sea Level PressureIn,VisibilityMPH,Wind Direction,Wind SpeedMPH,Gust SpeedMPH,PrecipitationIn,Events,Conditions,WindDirDegrees,DateUTC
12:00 AM,63.0,53.8,72,30.04,-9999.0,SW,10.4,-,N/A,,Unknown,220,2013-07-16 07:00:00
1:00 AM,61.7,54.7,78,30.04,-9999.0,SW,4.6,-,N/A,,Unknown,220,2013-07-16 08:00:00
2:00 AM,59.2,53.2,81,30.04,-9999.0,Calm,Calm,-,N/A,,Unknown,0,2013-07-16 09:00:00
3:00 AM,58.8,53.6,83,30.04,-9999.0,NE,4.6,-,N/A,,Unknown,50,2013-07-16 10:00:00
4:00 AM,60.8,54.1,79,30.02,-9999.0,East,10.4,-,N/A,,Unknown,80,2013-07-16 11:00:00
5:00 AM,61,54,70,30.01,,ENE,29.1,,,,,70,2013-07-16 12:00:00
5:00 AM,61.3,53.8,76,30.01,-9999.0,ENE,15.0,24.2,N/A,,Unknown,70,2013-07-16 12:00:00
6:00 AM,61.5,53.6,75,30.01,-9999.0,ENE,19.6,31.1,N/A,,Unknown,60,2013-07-16 13:00:00
7:00 AM,61.9,53.4,74,30.01,-9999.0,ENE,19.6,28.8,N/A,,Unknown,60,2013-07-16 14:00:00
8:00 AM,62.6,54.0,73,30.00,-9999.0,NE,26.5,-,N/A,,Unknown,50,2013-07-16 15:00:00
9:00 AM,63.3,54.1,72,29.99,-9999.0,NE,26.5,-,N/A,,Unknown,50,2013-07-16 16:00:00
10:00 AM,64.9,51.6,62,29.98,-9999.0,NE,27.6,-,N/A,,Unknown,50,2013-07-16 17:00:00
11:00 AM,65,52,53,29.96,,ENE,24.2,,,,,60,2013-07-16 18:00:00
11:00 AM,65.1,52.0,62,29.96,-9999.0,ENE,24.2,-,N/A,,Unknown,60,2013-07-16 18:00:00
12:00 PM,29.7,29.7,100,29.94,-9999.0,North,-9999.0,-,N/A,,Unknown,0,2013-07-16 19:00:00
1:00 PM,-9999,30.2,N/A,30.61,-9999.0,North,-9999.0,-,N/A,,Unknown,0,2013-07-16 20:00:00
2:00 PM,-9999,30.2,N/A,30.61,-9999.0,North,-9999.0,-,N/A,,Unknown,0,2013-07-16 21:00:00
3:00 PM,-9999,30.2,N/A,30.50,-9999.0,North,-9999.0,-,N/A,,Unknown,0,2013-07-16 22:00:00
4:00 PM,-9999,30.2,N/A,32.30,-9999.0,North,-9999.0,-,N/A,,Unknown,0,2013-07-16 23:00:00
5:00 PM,74,53,37,29.85,,SW,10.4,,,,,230,2013-07-17 00:00:00
5:00 PM,-9999,30.2,N/A,32.30,-9999.0,North,-9999.0,-,N/A,,Unknown,0,2013-07-17 00:00:00
6:00 PM,-9999,30.2,N/A,32.50,-9999.0,North,-9999.0,-,N/A,,Unknown,0,2013-07-17 01:00:00
7:00 PM,-9999,29.3,N/A,32.51,-9999.0,North,-9999.0,-,N/A,,Unknown,0,2013-07-17 02:00:00
8:00 PM,-9999,30.2,N/A,32.50,-9999.0,North,-9999.0,-,N/A,,Unknown,0,2013-07-17 03:00:00
9:00 PM,-9999,30.2,N/A,32.20,-9999.0,North,-9999.0,-,N/A,,Unknown,0,2013-07-17 04:00:00
10:00 PM,-9999,30.2,N/A,32.40,-9999.0,North,-9999.0,-,N/A,,Unknown,0,2013-07-17 05:00:00
11:00 PM,71,57,52,29.88,,SSW,13.4,,,,,210,2013-07-17 06:00:00
11:00 PM,-9999,30.2,N/A,32.10,-9999.0,North,-9999.0,-,N/A,,Unknown,0,2013-07-17 06:00:00